User: anonymous   Login
Location: L�Adrech
(44.2500°N, 6.4167°E)
Time: 13:52:01
(UTC+00:00)
Language:

Cosmos 1869 - Orbit

View from above orbital plane
View from above orbital plane
View from above satellite
View from above satellite

Ground track
Ground track

The orbit data is extracted from the following two-line orbital elements,

1 18214U 87062A   20218.54824511 +.00000173 +00000-0 +91457-5 0  9994
2 18214 082.4920 056.3564 0031064 289.8385 069.9495 15.08251450779881
Epoch (UTC): 05 August 2020 13:09:28
Eccentricity: 0.0031064
inclination: 82.4920°
perigee height: 520 km
apogee height: 563 km
right ascension of ascending node: 56.3564°
argument of perigee: 289.8385°
revolutions per day: 15.08251450
mean anomaly at epoch: 69.9495°
orbit number at epoch: 77988

The dashed part of the orbit path shows where the satellite is in the earth's shadow,  

DLR